Wind_Speed
8 8 8 7 7 7 8 8 7 7 7 8 8 9 9 9 10 10 10 10 10 11 11 12 13 12 12 13 15 16 16 17 16 13 13 10 6 5 9 8 7 12 16 15 14 14 13 13 13 13 11 8 7 7 7 7 6 5 6 6 6 7 4 3 1 3 2 4 6 3 2 3 4 2 3 3 8 6 4 5 3 4 8 13 13 16 21 21
8 8 8 7 7 8 8 8 8 8 7 8 9 9 9 10 10 9 10 10 10 11 11 12 12 12 13 13 15 15 17 18 18 15 12 11 7 4 8 10 10 14 17 15 16 17 13 12 13 13 10 6 7 6 6 7 7 7 6 6 8 6 1 6 5 6 4 4 4 3 3 3 4 3 3 5 4 5 8 9 8 6 10 13 15 15 18 21
8 8 8 7 8 8 8 8 8 8 8 9 9 9 10 10 10 9 10 10 10 11 12 13 12 12 12 13 14 13 15 18 17 11 9 9 5 2 4 9 13 17 20 15 15 17 13 12 13 12 10 7 6 6 6 7 7 8 7 6 8 4 4 3 4 4 5 6 5 4 4 5 5 3 4 6 4 8 8 7 9 8 10 11 13 13 17 19
8 8 8 8 8 9 9 8 8 8 8 9 9 9 10 10 10 10 10 10 11 11 12 13 12 12 12 12 13 12 14 16 9 7 11 6 3 4 4 8 15 21 19 13 13 16 12 11 12 11 10 7 7 7 7 8 7 7 7 9 5 4 4 0 2 3 4 6 7 6 6 7 4 4 6 7 7 9 3 3 7 11 10 9 11 12 16 17
8 8 8 8 8 9 9 9 9 9 9 9 9 10 10 11 11 11 11 11 11 11 11 13 12 12 12 12 11 11 11 7 4 12 8 5 5 6 5 9 17 22 17 12 13 15 12 11 11 11 10 7 8 7 9 10 7 7 8 12 9 5 4 1 2 2 3 6 7 7 7 6 5 5 8 8 9 5 5 2 5 14 12 10 12 12 15 16
8 8 9 9 9 9 9 10 10 9 10 9 9 10 11 11 11 11 11 12 12 11 11 12 11 12 11 11 10 10 9 3 6 8 3 5 6 7 6 12 20 21 15 12 13 14 12 12 11 10 9 8 9 8 9 10 9 8 8 10 10 8 7 2 2 3 3 7 8 7 7 6 7 8 7 7 10 6 8 3 6 16 14 12 13 12 14 15
9 9 9 9 10 10 10 10 11 11 11 10 10 10 11 12 11 12 11 12 13 12 11 10 10 11 11 11 10 8 11 6 4 3 3 4 5 5 10 16 22 19 13 13 13 13 12 13 12 10 9 9 9 10 9 9 10 10 8 9 8 7 9 6 5 5 6 8 7 7 8 7 9 9 4 6 10 4 6 1 6 14 14 13 13 13 14 14
9 9 10 10 10 11 11 11 11 12 11 11 11 11 12 12 12 12 12 13 13 12 12 10 9 9 10 11 9 8 10 3 6 2 4 2 3 10 15 18 20 16 14 15 14 13 12 13 13 10 9 8 6 8 7 7 11 12 11 9 6 6 7 7 6 8 8 7 7 8 10 9 10 9 6 9 9 1 2 3 7 11 13 13 13 13 14 14
10 10 10 11 11 11 12 12 12 12 12 12 12 12 12 12 12 12 12 13 13 13 12 10 8 6 7 8 9 8 3 5 7 1 0 5 10 17 18 17 18 15 13 15 13 13 11 10 13 10 8 7 4 7 8 7 8 9 12 10 9 9 7 7 8 8 8 6 7 9 11 10 9 8 9 13 7 2 2 5 7 10 12 12 12 13 13 13
10 10 11 12 12 11 12 13 13 13 13 13 13 13 13 13 13 13 13 13 13 14 12 10 7 4 7 9 10 7 4 8 5 4 6 11 15 18 16 15 16 14 12 12 11 12 10 7 10 7 7 6 4 7 9 9 4 2 8 10 10 11 8 8 8 8 8 8 9 10 11 10 8 6 9 11 6 2 4 6 8 9 10 9 10 12 12 12
9 10 11 12 12 12 13 13 14 14 14 14 13 14 14 14 13 13 14 14 14 14 12 10 4 4 10 10 10 5 6 5 4 7 9 13 16 17 15 14 15 12 10 9 9 11 10 7 6 4 4 4 5 7 9 10 8 5 6 8 10 12 11 11 10 9 8 8 9 10 11 11 8 9 11 7 7 5 6 7 9 8 8 7 8 11 10 10
9 10 11 12 13 13 13 14 14 14 15 15 14 15 15 14 14 15 15 15 15 13 12 8 2 4 10 9 11 6 4 3 4 7 11 14 14 13 13 13 13 10 8 8 9 9 9 6 7 9 3 2 6 6 7 10 10 8 7 9 11 12 12 13 13 9 9 7 5 6 9 11 11 12 15 8 7 7 8 8 8 8 8 8 8 10 9 10
10 11 11 12 13 13 14 15 14 15 15 15 15 15 15 14 14 15 16 15 13 11 11 4 3 6 9 7 7 5 1 4 6 7 11 13 12 10 11 13 11 8 5 5 6 7 7 5 9 12 5 5 6 2 1 7 8 8 9 10 9 10 12 14 12 8 9 6 3 4 6 11 13 17 19 10 8 9 9 10 8 7 7 9 8 9 9 10
10 11 11 12 13 14 14 15 15 15 15 16 16 16 15 14 15 15 14 12 10 9 7 4 6 7 8 8 3 6 5 4 7 10 12 13 12 10 10 11 9 7 5 4 2 4 6 6 9 10 7 9 5 2 4 7 6 9 10 8 7 8 7 12 11 8 8 6 7 8 7 9 10 17 17 9 8 10 10 10 10 9 7 9 9 9 9 10
11 11 12 12 13 14 15 15 16 15 16 16 16 16 15 14 14 13 10 8 8 5 3 6 8 6 7 9 4 8 9 7 10 13 13 14 14 12 11 11 9 7 6 5 3 3 5 7 8 8 7 9 6 4 8 7 7 8 8 7 8 8 4 12 11 8 7 5 8 10 7 8 6 12 12 7 7 10 10 10 10 12 13 13 12 10 9 10
11 12 12 12 13 14 15 16 16 16 17 16 16 15 14 14 12 9 6 4 4 3 7 6 9 9 7 3 5 6 10 11 13 15 14 15 15 12 13 11 9 9 7 6 4 4 6 7 8 8 7 8 7 7 7 7 7 8 8 8 8 8 6 9 10 10 7 2 8 10 7 9 6 9 10 6 10 10 10 11 11 13 11 11 10 10 9 8
11 12 12 12 13 14 15 16 17 16 17 17 16 14 12 12 8 4 3 0 2 6 8 7 5 9 8 2 4 7 11 10 11 16 16 15 14 12 12 11 10 10 9 8 6 6 7 7 7 7 8 7 8 8 8 7 7 7 7 8 7 7 6 4 8 10 7 5 8 9 7 11 7 6 8 8 11 11 12 12 11 10 8 8 9 9 9 9
11 12 13 13 13 14 15 16 17 16 17 16 13 11 10 8 4 2 1 4 5 6 9 8 5 6 7 8 5 4 11 9 8 14 16 15 14 11 11 11 10 11 10 8 8 8 8 7 7 7 7 7 8 9 8 8 7 8 9 8 8 7 7 6 4 8 8 7 8 8 8 11 11 4 5 9 9 11 12 11 10 10 10 11 9 8 10 11
11 12 13 13 13 14 14 15 17 16 17 15 10 8 8 5 4 7 9 8 8 7 4 5 9 3 1 9 6 5 10 10 9 12 13 15 15 13 13 11 10 11 10 7 9 10 7 7 8 8 8 9 11 11 12 11 6 7 8 7 9 8 8 8 4 7 5 6 7 9 9 10 12 12 11 10 9 10 11 11 10 9 11 11 10 10 9 10
11 12 13 13 13 14 15 15 16 16 16 15 12 7 5 4 5 6 8 10 11 11 9 3 12 7 1 6 8 7 9 9 9 10 12 14 16 15 13 11 11 11 10 8 9 10 8 7 8 9 10 12 14 13 15 13 5 7 9 5 8 8 7 7 5 5 3 5 7 8 11 11 12 12 12 11 10 10 11 12 12 11 11 12 12 12 10 9
12 12 13 13 14 14 15 15 16 16 14 13 12 9 4 4 4 1 1 9 15 17 15 9 10 11 5 2 5 6 7 9 10 10 12 14 15 14 11 12 12 9 11 11 8 7 8 8 9 12 13 13 12 13 15 12 4 6 9 7 7 8 8 6 6 5 3 5 8 9 11 12 12 11 11 12 10 10 11 13 13 14 14 13 14 14 12 9
13 12 13 14 15 15 15 16 16 14 11 8 10 10 5 7 5 5 5 8 11 15 15 12 12 11 7 6 4 3 6 10 11 11 14 14 15 13 11 13 12 10 11 11 8 7 8 9 12 13 13 11 8 8 11 9 6 8 9 8 8 8 9 5 7 5 5 4 7 9 10 10 10 11 12 15 13 10 11 14 13 15 16 14 15 14 12 9
13 12 13 14 15 16 16 16 15 13 8 7 10 9 5 6 5 6 6 7 9 12 14 12 12 11 10 11 9 8 9 10 11 13 16 14 13 12 11 13 13 11 12 12 9 7 7 9 14 15 10 8 7 6 7 7 7 8 8 8 9 9 10 6 5 6 6 5 8 9 9 8 8 9 12 15 15 12 12 14 14 14 16 14 16 14 12 11
13 13 13 14 16 16 15 15 13 9 8 10 11 9 5 5 5 8 6 7 7 8 9 7 8 10 8 6 10 14 12 10 11 12 18 15 12 11 12 12 13 13 11 14 14 11 10 6 8 13 9 8 9 9 9 7 7 9 11 10 9 11 13 7 5 5 5 7 10 10 9 8 10 12 13 13 14 14 12 14 14 13 15 15 16 15 12 14
13 13 13 14 16 14 13 13 9 5 6 8 10 7 3 4 5 8 6 6 6 6 7 6 7 7 5 4 8 12 11 11 13 11 17 17 14 10 10 10 10 12 12 15 14 12 13 4 4 8 8 9 11 10 11 9 7 9 12 13 13 13 13 8 7 7 6 8 10 12 10 7 11 15 15 12 14 15 12 12 14 12 14 15 15 16 13 14
13 13 13 14 15 14 10 6 2 2 6 7 3 2 1 3 4 6 5 5 5 7 9 8 8 6 7 8 9 10 10 12 14 14 15 17 16 11 9 8 7 12 13 13 10 8 10 7 7 8 8 10 12 10 11 11 8 8 9 13 15 14 13 10 11 10 7 8 4 6 8 7 8 11 11 11 12 12 12 13 14 13 13 14 14 15 14 11
13 13 13 13 14 12 8 5 5 6 6 2 3 1 1 4 4 4 4 5 5 7 9 8 6 5 7 8 11 10 5 5 12 16 15 16 16 12 10 10 8 10 10 8 8 6 9 7 6 10 11 10 11 9 11 11 9 8 5 6 10 11 12 12 12 10 8 9 4 6 9 9 8 9 7 10 10 10 13 14 13 11 11 13 13 14 16 13
13 13 13 13 13 10 9 10 10 7 2 4 1 2 3 4 4 3 4 4 3 6 6 6 5 3 5 6 12 10 1 4 9 14 16 16 16 12 11 13 10 11 11 8 8 7 9 11 8 10 11 9 9 9 11 12 10 9 3 2 7 9 11 11 10 9 9 10 8 8 10 8 7 10 9 10 11 11 12 9 8 6 7 9 11 13 16 12
13 13 12 13 12 8 8 10 11 8 4 3 2 3 4 5 4 4 5 3 4 4 3 5 4 6 7 7 11 11 4 5 4 8 16 16 16 13 10 12 12 12 13 11 10 7 9 11 10 10 10 8 9 9 9 10 10 9 4 4 7 8 9 10 9 9 9 10 10 10 10 8 7 8 7 7 9 9 6 6 5 3 3 7 10 13 14 7
13 13 12 14 12 6 6 10 13 12 6 3 4 5 5 5 4 5 5 2 4 5 4 5 6 8 9 8 10 11 10 8 4 7 13 13 15 15 9 10 11 11 12 12 12 10 5 4 5 8 9 8 9 9 8 9 10 7 4 6 8 8 9 9 8 8 9 9 10 13 14 11 8 5 2 1 1 0 3 5 2 2 3 7 8 11 15 6
14 13 12 12 10 7 6 5 5 7 5 4 5 6 6 4 4 6 4 2 2 6 6 7 8 8 9 9 8 11 12 10 8 10 11 9 13 14 9 8 8 9 11 11 12 14 9 7 4 7 10 10 10 11 10 11 11 8 5 7 8 8 8 7 7 8 8 9 9 13 16 13 9 3 3 3 4 4 2 2 0 2 4 5 4 8 10 4
15 15 13 13 12 11 11 5 3 1 2 4 6 5 6 5 6 6 3 3 3 5 5 5 7 7 8 6 5 10 11 10 10 11 11 11 11 12 12 10 8 8 11 10 11 12 11 10 9 10 11 12 11 9 10 10 10 9 8 8 8 7 7 7 7 8 8 9 10 11 10 10 7 1 4 3 3 4 3 3 2 2 2 2 3 6 4 3
17 17 16 14 14 16 17 11 6 5 4 6 6 6 5 5 6 5 3 5 2 3 1 2 4 5 6 7 7 10 10 10 12 12 12 13 11 12 16 15 13 11 9 9 10 10 9 10 12 12 10 12 13 9 8 9 9 11 9 8 8 7 7 7 7 8 8 9 11 8 5 6 5 2 5 4 4 4 3 4 4 3 2 1 2 4 3 4
19 17 16 14 14 16 15 12 8 7 6 6 6 6 6 6 4 2 3 3 4 2 2 3 4 6 9 10 6 8 8 9 13 12 12 13 11 11 14 17 18 14 8 8 9 9 10 9 12 12 9 12 14 12 10 8 10 12 10 10 9 7 7 7 6 7 6 6 8 8 6 6 5 2 5 5 4 4 4 4 4 4 1 1 2 3 4 5
15 11 11 11 13 15 14 12 8 6 6 6 6 6 6 6 4 4 3 2 4 1 3 3 6 8 9 9 4 5 7 6 12 13 10 11 11 10 11 14 18 15 10 9 7 8 12 9 10 13 12 13 16 15 13 10 8 10 10 10 9 8 7 5 5 4 2 4 5 7 6 2 2 4 5 4 4 4 5 5 4 3 2 1 2 2 3 4
10 5 7 9 10 10 12 12 9 7 7 6 6 7 6 5 2 0 1 3 3 3 3 5 8 8 8 8 7 8 7 4 9 11 9 11 12 12 12 12 15 17 12 8 6 6 9 8 9 13 14 14 14 14 14 11 7 6 9 10 9 9 9 6 7 5 2 5 6 6 6 4 6 5 5 5 5 5 4 4 4 4 4 3 3 3 2 2
8 5 5 7 7 7 10 12 10 9 7 6 7 6 4 3 1 3 4 3 3 3 6 6 5 5 7 7 8 10 9 6 9 9 8 10 10 12 14 11 14 17 15 11 7 5 7 6 7 12 13 12 12 13 15 14 10 6 6 8 8 10 9 6 6 6 6 8 7 7 10 5 4 3 3 5 5 5 4 4 4 4 4 5 5 6 5 5
8 6 4 5 6 7 10 12 11 9 6 6 7 7 5 1 1 2 3 4 5 4 6 6 1 2 6 6 6 8 8 7 8 8 8 8 7 10 13 12 12 15 17 15 9 5 6 6 6 11 12 12 11 11 12 14 15 12 6 5 6 8 8 6 6 6 7 7 6 9 11 4 2 2 4 4 4 4 3 3 4 4 5 5 6 7 6 6
8 6 4 6 6 7 10 12 10 8 6 6 7 6 6 3 1 1 3 3 5 4 5 5 2 2 5 6 4 4 5 7 8 8 7 7 4 4 8 9 10 12 14 15 10 5 5 6 6 9 11 10 10 9 9 10 14 14 10 7 6 6 6 6 6 6 8 7 6 9 9 1 4 3 4 4 4 4 3 4 4 5 6 5 6 6 5 5
7 4 4 7 8 9 11 10 8 7 6 7 5 2 3 3 2 1 2 3 4 4 4 4 2 3 5 6 6 4 4 6 7 6 6 7 6 4 6 6 7 10 12 14 12 7 5 6 5 7 9 9 8 8 10 10 11 12 10 9 7 7 6 5 4 5 7 6 5 7 5 2 3 2 4 5 5 4 4 5 5 5 7 7 8 8 7 7
6 3 4 9 9 9 9 7 6 6 6 6 5 2 2 1 1 2 2 2 4 5 4 5 5 5 5 5 7 6 4 6 7 6 6 6 4 4 4 2 5 8 10 12 12 7 5 6 6 6 7 9 9 11 14 13 10 10 10 10 10 8 7 7 7 6 6 6 6 6 2 4 2 1 4 5 6 4 4 7 7 7 8 8 8 9 8 8
5 3 6 10 11 9 7 6 4 5 6 3 2 1 3 2 4 3 3 4 5 5 4 5 6 6 6 6 7 5 4 7 8 6 7 4 3 4 1 2 6 8 7 8 9 7 5 5 8 8 7 8 8 9 10 8 8 10 10 10 11 9 8 8 6 5 6 6 8 8 4 5 2 2 5 7 8 8 7 8 8 8 9 9 9 9 9 8
4 3 6 10 11 8 5 5 4 5 5 2 1 2 2 2 6 3 3 5 5 5 5 5 6 6 6 6 6 6 4 6 8 6 6 4 5 4 4 3 6 9 7 5 5 7 6 5 8 8 8 8 5 5 7 6 8 10 8 8 10 10 9 8 4 2 4 4 6 7 3 4 1 2 6 7 8 10 10 10 9 8 8 9 9 9 8 9
4 3 5 9 10 7 5 4 4 6 4 2 3 5 3 3 6 4 4 6 5 5 5 5 6 6 5 4 5 8 5 4 6 6 5 3 4 2 5 4 6 9 5 2 1 4 5 6 8 7 7 8 6 6 8 9 9 9 8 10 12 11 10 8 5 4 5 4 5 7 1 4 4 5 6 6 8 11 10 10 9 8 8 8 8 8 8 9
4 3 4 7 8 7 5 4 4 3 2 1 3 5 4 4 4 4 6 6 4 4 5 5 5 4 5 6 6 8 8 6 6 5 5 3 3 5 3 3 6 7 3 5 2 5 6 6 7 7 9 8 6 5 5 5 7 8 11 11 10 10 11 9 6 7 6 6 9 8 0 6 5 5 6 6 8 10 10 9 9 8 8 8 7 7 8 8
3 3 4 5 6 6 4 3 4 3 2 3 3 3 5 5 4 4 4 7 5 5 6 5 4 4 6 8 7 8 10 9 7 6 5 4 1 2 1 1 2 3 9 9 5 5 5 5 5 8 8 4 3 4 6 7 6 8 13 11 6 7 10 9 8 7 5 3 5 4 5 8 6 6 6 6 8 9 8 9 8 8 8 7 7 8 8 8
3 3 4 4 4 5 4 5 5 2 2 3 2 3 4 5 4 4 4 5 4 4 6 6 5 6 6 7 7 7 9 9 8 7 7 5 0 2 2 0 4 7 9 6 4 2 4 6 8 10 10 6 4 4 7 9 7 9 11 9 6 6 9 10 9 5 3 3 2 1 7 10 7 7 7 7 8 8 8 8 8 7 7 7 8 9 9 9
3 1 2 1 2 3 3 3 3 2 3 3 2 2 3 4 5 4 4 5 5 4 5 5 6 7 6 5 6 6 8 9 8 7 7 7 4 4 2 0 5 6 4 3 2 1 4 6 5 7 9 6 3 1 5 7 5 5 5 3 4 5 7 8 6 3 4 4 3 5 10 10 7 7 8 7 8 8 8 7 7 7 7 8 9 10 10 10
3 1 2 1 2 1 2 1 2 3 4 3 3 3 2 3 4 4 4 5 5 5 5 5 7 7 4 5 6 6 5 6 6 4 2 6 6 2 2 1 3 3 3 2 2 2 3 2 1 5 7 2 4 2 4 3 5 3 3 2 2 2 2 2 3 3 2 3 6 11 13 11 7 6 7 7 7 7 7 7 7 8 8 9 10 10 10 9
2 1 2 3 2 1 2 2 2 3 3 3 3 3 1 2 2 2 2 3 4 5 5 5 7 7 4 4 5 3 1 3 4 3 2 5 5 2 1 3 1 1 2 2 3 4 3 3 5 6 7 2 4 5 2 2 7 3 8 9 6 4 5 6 6 5 5 7 10 12 11 8 5 5 7 7 6 7 8 8 8 8 9 9 9 9 9 9
4 3 2 4 3 3 3 4 3 4 4 4 3 4 3 2 2 2 2 3 4 4 4 4 5 5 5 5 3 1 1 3 4 5 4 4 4 2 1 2 2 2 1 0 2 2 3 4 3 6 9 5 5 7 5 5 7 3 9 11 9 5 4 6 7 7 5 3 8 8 5 5 5 6 7 8 8 9 9 9 8 8 9 9 9 9 9 9
4 3 4 5 2 3 3 4 4 5 3 2 2 3 3 2 1 2 2 4 4 3 3 3 3 4 5 5 3 1 4 6 5 5 4 3 3 1 2 1 1 2 2 2 2 0 2 5 4 4 7 5 4 6 6 6 5 2 5 9 9 6 4 4 7 9 8 3 3 3 4 7 8 7 7 8 9 9 9 8 7 7 8 9 9 9 9 9
Wind_Direction
336 335 333 330 329 329 327 326 328 328 327 326 324 321 317 315 313 313 313 312 313 307 305 307 307 310 310 313 311 314 320 309 295 267 243 246 246 224 236 237 213 187 173 176 181 183 188 198 199 197 208 200 216 226 188 212 237 220 233 235 236 232 244 298 175 71 1 84 74 24 32 298 308 2 321 240 216 224 204 190 145 113 96 96 108 130 140 150
334 333 332 329 327 326 325 324 325 325 325 324 320 318 314 311 308 306 308 311 310 307 307 308 309 310 308 310 309 316 318 300 281 267 239 230 232 234 238 222 202 179 172 183 188 188 190 193 192 193 208 203 203 204 178 202 221 223 231 228 237 236 28 358 6 30 354 9 24 327 339 307 299 341 317 279 235 222 220 178 166 141 107 109 119 133 144 149
333 332 331 330 327 325 323 323 323 324 323 320 318 315 313 310 306 303 307 310 309 310 310 310 312 309 308 309 311 319 316 296 276 251 200 206 228 283 246 204 191 174 174 190 190 192 199 195 189 195 211 213 200 189 186 194 204 225 237 231 235 279 18 20 1 3 354 344 322 315 330 281 276 317 278 288 285 244 232 166 170 151 117 121 125 139 151 152
332 329 329 328 325 323 321 322 320 320 319 317 317 314 312 311 308 309 311 311 310 310 309 312 314 313 313 307 312 323 307 286 266 157 159 203 264 290 257 195 184 175 184 205 198 199 209 200 192 205 220 218 202 200 209 194 197 220 228 241 248 356 329 137 38 353 351 325 305 311 297 266 285 304 265 275 258 235 201 151 178 142 129 138 136 149 160 162
330 326 328 324 323 322 319 319 316 315 316 315 315 314 312 309 308 310 311 311 310 308 308 311 315 319 315 307 315 315 293 279 129 125 153 251 287 273 242 190 179 174 192 222 210 206 216 209 198 211 227 227 202 202 223 203 208 236 228 251 276 316 283 117 57 326 334 298 287 284 276 291 313 273 259 266 264 276 62 66 140 129 144 155 153 167 167 171
326 326 324 322 321 320 318 317 315 314 314 315 315 313 310 308 308 311 312 311 308 306 306 310 320 326 316 309 312 293 270 277 107 127 188 273 271 256 211 181 173 173 198 228 216 210 214 209 202 210 224 231 208 203 228 206 209 245 234 243 261 266 264 289 282 277 301 277 273 279 289 306 286 263 262 258 266 317 42 28 114 132 158 157 160 180 172 172
325 325 322 322 319 318 318 316 316 315 314 316 315 312 310 308 309 311 311 309 306 305 305 310 324 326 321 313 299 260 250 264 109 123 280 268 252 214 176 169 167 176 204 217 208 204 207 204 206 211 220 230 215 211 223 209 212 240 249 244 243 250 261 275 280 275 269 267 274 281 283 277 262 261 263 251 257 298 53 66 132 135 153 155 166 183 174 172
324 323 321 320 319 319 318 315 315 315 314 314 314 312 310 308 309 309 308 306 303 301 302 309 324 327 328 321 295 250 241 241 102 104 287 245 172 151 154 160 168 185 206 208 200 201 206 204 211 214 222 232 216 209 209 215 223 232 249 256 253 254 258 264 266 261 258 263 267 262 264 259 255 267 276 255 249 302 67 165 150 145 150 160 173 175 173 175
323 321 320 318 318 318 316 316 315 313 313 313 313 312 310 310 308 307 306 303 300 299 301 307 319 328 322 305 283 271 222 105 99 61 313 140 144 144 150 161 177 194 203 205 201 204 208 203 214 221 246 257 213 211 208 218 228 223 240 251 253 252 250 253 250 250 254 254 254 254 256 252 247 261 260 242 226 102 188 171 157 160 152 161 173 169 173 175
321 319 318 317 317 317 316 315 312 312 313 312 313 311 310 309 306 306 304 300 297 296 298 304 315 323 300 276 266 273 109 106 111 113 129 142 144 149 162 170 181 198 201 201 204 211 217 216 221 228 268 272 229 225 215 222 247 234 248 255 256 260 259 256 253 251 257 254 249 253 254 252 243 244 241 221 177 155 198 169 169 159 142 157 168 165 173 173
315 318 318 316 316 316 315 313 312 313 313 313 313 310 310 308 304 304 301 297 295 293 294 298 303 286 285 273 265 276 105 123 135 129 150 151 150 161 174 175 181 200 200 195 210 220 227 241 248 232 245 250 224 230 223 231 261 276 270 265 254 257 255 248 248 241 246 247 236 246 255 252 237 237 241 193 141 197 201 179 175 143 132 156 166 168 174 172
314 317 317 315 315 315 313 312 311 312 313 314 312 310 308 305 301 300 298 295 293 292 293 291 242 261 280 269 255 258 98 153 160 140 162 160 161 171 176 178 185 199 199 195 208 219 228 242 248 236 235 271 227 221 225 227 248 263 260 264 251 244 241 234 234 226 234 239 221 247 255 240 225 228 237 197 155 201 196 192 171 135 147 162 175 176 173 174
316 316 315 313 313 313 312 310 310 312 314 314 313 310 306 303 300 298 295 293 291 287 288 274 184 251 269 267 247 224 174 189 172 157 168 168 166 168 172 179 188 201 214 223 207 209 227 239 246 242 247 265 231 135 268 225 234 252 243 254 255 243 236 219 213 212 231 228 186 242 253 237 213 212 229 201 170 199 198 203 167 146 167 162 182 183 173 180
317 316 314 311 311 313 311 309 311 312 311 312 312 308 305 304 300 296 292 294 294 279 273 189 187 243 251 263 253 175 191 184 182 183 175 174 166 160 168 176 190 202 208 241 223 202 225 232 247 252 249 259 261 106 239 231 224 245 237 233 240 254 229 182 181 195 215 181 173 225 251 257 212 195 209 179 177 205 206 208 157 154 182 168 189 186 176 186
317 317 314 311 312 312 311 310 311 311 311 312 310 306 306 304 297 293 291 298 296 270 195 171 204 235 249 249 209 174 196 195 201 196 182 182 176 169 171 175 189 194 195 216 217 206 223 223 231 245 229 237 266 233 225 226 214 227 236 225 219 241 182 148 165 199 214 156 176 219 239 260 228 178 174 149 198 211 210 214 163 174 189 173 185 184 179 185
318 316 316 314 313 311 311 311 311 311 312 310 307 308 307 299 289 285 294 300 293 158 154 195 211 221 271 266 147 171 197 203 211 199 190 192 189 184 174 174 184 183 195 206 207 211 213 217 222 240 231 212 228 237 228 222 214 210 226 240 217 214 196 157 169 196 222 182 186 216 244 260 238 154 148 171 219 211 212 221 191 191 190 174 186 181 180 177
317 317 316 314 312 311 310 310 311 312 312 310 310 311 303 289 277 284 325 199 151 154 189 247 224 213 265 282 167 199 189 193 202 192 195 198 201 197 173 175 185 179 192 194 202 214 199 208 221 233 240 220 216 229 233 222 216 202 208 246 242 221 228 179 155 171 194 211 212 216 238 264 269 126 142 190 216 213 211 217 208 197 189 197 202 181 176 175
317 316 314 313 313 311 310 309 311 312 312 312 314 320 308 285 261 249 235 171 172 194 222 256 247 232 243 215 212 180 164 166 170 178 189 195 203 206 181 183 184 177 192 191 200 210 192 200 215 219 222 220 220 221 228 227 227 218 200 220 239 229 245 243 153 147 175 208 227 224 226 248 265 259 202 198 200 216 214 208 213 203 198 208 206 196 185 180
316 314 314 314 313 311 310 310 311 313 315 318 325 327 312 282 246 237 227 201 185 207 234 190 200 256 79 182 188 114 137 144 150 168 179 187 195 202 194 191 185 185 199 193 190 197 192 199 209 220 217 209 219 219 227 239 261 269 241 217 230 226 226 231 163 129 170 227 231 236 243 242 246 246 242 224 192 210 221 204 208 213 211 213 207 209 194 175
315 315 315 312 313 313 310 310 310 312 315 318 318 297 268 254 240 216 206 213 215 243 289 213 200 241 32 158 164 140 143 155 176 179 174 179 185 193 195 193 193 196 211 202 180 186 197 212 209 217 222 213 218 223 238 256 303 299 284 255 241 249 238 222 177 144 176 253 246 244 251 253 252 247 248 241 197 196 225 211 206 218 220 222 216 207 193 176
316 316 315 313 314 312 308 309 307 309 312 308 298 271 273 332 315 346 210 234 226 236 263 259 227 246 260 184 145 153 171 184 200 185 167 175 182 188 188 192 199 198 216 212 178 179 201 222 223 219 228 227 222 225 239 264 296 260 265 264 243 246 250 221 161 165 195 239 252 252 250 248 249 248 250 251 219 195 221 220 209 218 225 223 223 208 190 174
317 316 316 314 313 311 310 309 304 310 314 289 265 257 302 8 2 342 321 275 243 229 240 243 239 248 242 221 192 211 221 199 197 181 165 175 187 190 180 189 208 200 207 211 183 184 208 229 234 226 229 232 235 239 235 244 253 243 248 257 251 239 242 209 147 182 216 232 254 254 256 254 246 244 242 247 241 211 217 228 213 216 228 224 228 213 177 173
317 318 317 312 312 312 310 309 308 310 296 254 248 259 314 7 352 321 296 284 272 237 226 226 227 228 221 216 203 210 230 213 200 178 169 184 196 200 193 190 212 213 201 207 201 199 215 223 228 228 224 218 224 237 233 227 231 242 242 243 245 239 243 228 173 197 209 232 266 271 270 265 257 253 245 243 245 230 216 228 221 214 224 226 236 224 169 180
319 319 317 315 314 313 313 313 307 291 252 241 256 268 316 342 326 324 297 271 272 226 203 211 224 219 212 206 191 201 221 224 219 186 171 191 202 202 212 202 210 223 206 205 210 222 241 230 212 219 203 195 215 214 220 231 226 228 236 245 247 243 247 239 209 218 216 233 249 260 269 259 246 244 242 237 236 234 221 223 227 218 221 223 235 238 188 180
320 317 318 318 314 315 318 309 290 247 225 246 260 253 280 317 321 328 304 261 247 189 161 179 204 201 174 144 175 197 217 221 229 208 174 191 209 198 212 213 212 226 211 204 211 232 247 224 149 215 193 192 223 217 212 224 235 225 219 234 247 257 264 260 253 258 252 251 234 227 247 252 240 238 235 230 223 222 221 225 227 222 225 224 225 238 221 188
318 316 318 315 315 321 316 303 283 247 249 249 247 169 220 319 331 320 289 257 230 169 153 180 187 163 164 174 179 195 222 219 219 217 186 190 214 212 213 209 207 229 219 205 212 238 239 186 156 218 214 209 227 223 212 212 234 243 217 221 232 248 267 264 261 260 252 273 250 201 246 269 256 246 230 232 227 206 212 229 229 223 225 227 226 231 230 201
314 315 318 311 316 323 313 326 335 285 258 198 99 112 290 329 329 307 263 252 223 160 149 169 167 154 173 173 175 190 219 182 188 208 199 189 204 217 226 213 198 225 226 210 216 224 228 205 180 218 222 221 228 220 210 206 223 243 223 221 227 233 250 248 248 253 252 270 249 184 239 266 269 261 228 226 232 214 218 222 218 227 230 230 234 229 230 214
312 314 315 306 310 309 291 305 303 274 305 51 54 269 319 332 305 256 247 244 167 142 148 141 121 160 180 164 189 205 92 114 179 197 192 191 199 205 226 227 211 214 216 222 226 191 199 217 208 212 220 221 224 220 210 205 224 239 207 213 246 246 249 246 243 245 248 258 250 219 231 251 262 263 243 218 216 221 223 200 190 231 259 260 260 249 241 214
314 313 311 306 306 296 267 275 273 267 330 5 287 297 322 308 272 233 255 254 145 142 153 136 141 185 181 165 198 216 212 201 208 173 177 191 206 210 229 236 229 221 212 220 236 200 183 215 215 207 219 224 219 221 212 201 222 248 247 224 243 254 250 247 246 247 245 245 253 249 241 249 257 257 255 228 216 222 204 158 175 227 276 276 274 271 262 194
312 307 309 307 307 310 263 249 249 258 283 293 284 305 294 266 239 222 226 218 168 157 146 155 169 178 178 180 194 202 211 209 150 153 181 188 203 216 236 239 238 238 215 207 235 238 175 170 221 222 226 230 221 221 213 200 215 246 269 235 230 236 238 240 244 251 253 242 241 248 248 253 258 261 311 254 204 255 140 149 197 279 262 252 243 255 261 204
308 302 303 296 293 306 285 244 234 244 241 268 295 289 261 228 232 239 198 153 184 157 156 176 168 168 192 211 203 183 197 203 165 172 191 182 193 207 219 226 230 239 222 202 224 239 207 169 206 228 228 235 231 225 215 205 215 228 235 234 230 223 222 229 231 233 247 248 241 244 246 245 246 246 71 89 91 64 60 116 83 287 259 251 233 236 248 199
304 299 294 280 274 274 263 255 31 5 215 285 295 258 238 210 225 243 171 153 202 162 167 178 165 184 211 229 216 176 187 201 182 181 191 190 194 197 206 213 198 208 222 207 208 226 222 207 208 205 210 225 228 221 211 202 212 224 221 227 232 222 215 223 229 223 232 244 247 253 251 240 242 121 105 124 95 84 51 51 56 326 281 242 247 237 215 136
302 298 289 275 261 252 251 257 284 285 271 289 274 232 236 227 220 241 196 177 143 92 128 169 179 217 226 226 206 182 191 195 183 191 197 196 199 196 207 216 207 209 224 215 208 215 220 214 207 198 193 209 220 218 205 195 205 217 214 218 226 223 217 223 230 229 230 236 239 245 248 236 240 91 114 137 100 97 82 68 75 41 1 250 243 228 159 138
302 294 282 267 252 244 245 251 254 262 268 260 240 217 232 242 226 251 245 167 97 85 171 183 224 228 230 239 208 173 206 202 180 192 195 192 204 201 204 213 214 217 225 221 217 218 225 215 200 202 187 186 208 224 222 206 204 212 216 224 230 231 230 233 239 238 242 250 232 215 225 248 243 106 90 92 90 103 99 88 88 80 69 242 225 206 171 162
307 291 269 251 244 240 234 232 230 239 246 232 227 218 217 236 230 213 230 82 82 189 183 188 236 230 222 233 216 189 230 214 183 195 200 196 206 204 201 208 212 216 219 219 215 217 235 232 193 201 204 189 198 221 234 232 213 205 213 226 231 233 234 246 272 279 284 279 243 213 224 246 141 131 104 94 93 91 91 94 97 102 120 142 170 186 177 159
312 276 234 223 227 226 215 213 210 215 232 226 222 221 215 237 272 297 1 18 14 309 289 230 223 230 221 204 197 204 211 203 198 205 206 204 205 205 207 205 203 211 218 220 215 210 231 236 188 192 209 206 201 211 224 237 237 203 207 222 228 233 238 246 257 254 235 255 256 241 234 162 142 162 139 116 99 80 79 92 97 102 115 121 110 88 86 97
302 248 204 195 199 196 192 194 193 201 228 235 225 233 237 232 314 16 12 342 319 305 285 254 199 219 238 206 190 193 184 191 211 212 208 208 207 204 209 208 198 206 219 225 228 214 229 247 198 190 205 208 209 216 216 224 240 233 216 223 219 224 237 251 252 232 219 240 247 245 242 208 169 189 137 111 95 80 78 89 92 97 105 103 83 66 53 46
287 244 182 142 151 170 177 178 185 199 219 234 235 248 269 249 117 349 350 327 305 278 267 271 202 225 257 234 197 184 182 194 203 211 218 209 202 202 210 211 196 203 216 221 226 216 228 251 208 197 212 203 199 221 218 212 223 234 247 246 233 232 226 219 234 238 234 240 244 243 243 234 81 108 125 131 131 121 113 111 110 106 103 99 87 70 54 53
267 233 158 119 129 152 162 167 185 207 215 227 234 236 245 240 125 345 326 304 286 273 269 278 254 236 257 260 251 193 202 222 207 211 225 206 198 239 243 226 198 202 215 218 223 212 221 250 213 199 217 200 184 211 223 204 207 223 241 242 240 252 242 222 223 233 238 237 236 241 236 164 47 63 110 119 118 129 142 131 117 99 92 88 91 83 63 62
240 220 139 135 138 141 152 168 195 213 213 226 242 212 204 222 171 182 284 284 274 269 281 295 271 240 250 267 279 250 232 247 223 214 229 207 191 226 253 254 219 207 213 219 223 209 202 236 229 205 208 198 185 202 218 211 198 205 225 228 223 232 239 243 239 242 258 258 248 252 239 120 68 73 130 129 110 120 145 127 107 88 79 69 72 73 61 54
229 218 143 152 158 146 156 189 207 213 218 227 250 238 121 9 289 190 193 246 273 273 285 299 286 275 281 279 263 237 235 261 237 216 225 215 202 213 210 256 253 221 210 217 220 210 201 220 231 222 208 207 210 208 213 222 215 204 210 217 221 229 231 232 229 223 238 250 250 251 208 109 72 61 114 123 108 100 112 111 103 88 77 70 66 64 61 54
235 200 135 155 171 164 180 217 205 225 237 215 262 281 76 17 277 250 215 213 237 247 245 267 274 278 279 273 269 257 247 262 249 226 226 216 37 4 285 239 261 243 215 216 219 210 208 231 231 219 217 226 222 208 211 230 238 229 225 222 222 226 228 237 244 229 226 249 264 250 174 108 22 32 85 90 82 68 59 75 89 82 69 62 57 51 49 48
212 153 127 161 184 190 220 229 194 220 228 116 327 264 121 240 245 236 238 219 223 233 224 242 261 258 251 256 277 274 253 263 266 258 242 199 90 27 305 274 262 251 229 224 230 204 190 227 237 222 227 234 211 188 211 227 236 237 236 233 231 229 231 238 246 249 250 269 286 267 203 127 125 84 86 87 83 69 56 54 58 60 54 44 43 40 36 37
195 136 137 175 193 208 237 241 215 213 191 105 291 243 189 245 251 244 242 220 213 231 231 239 248 245 248 256 267 267 270 273 262 260 264 239 137 181 270 275 258 253 232 141 244 223 196 214 227 223 225 225 210 202 211 210 218 231 232 230 235 241 243 237 213 226 245 223 239 267 276 107 130 118 105 108 95 76 64 56 47 46 47 38 36 36 34 33
187 145 148 175 192 215 243 278 285 255 181 163 262 245 217 216 219 249 271 255 233 245 250 250 253 251 258 263 259 261 267 261 254 261 274 267 150 154 223 256 249 263 342 40 330 263 238 220 224 234 226 218 223 231 229 222 218 222 225 226 237 247 250 249 229 236 254 230 241 265 32 100 105 112 119 121 100 82 73 69 60 51 47 40 38 36 35 33
195 170 161 163 187 220 249 272 269 260 201 197 221 235 238 227 183 171 249 254 234 243 255 254 267 269 258 261 262 256 253 242 237 250 258 263 98 93 324 247 181 347 359 354 316 267 254 247 249 262 261 250 263 287 302 298 274 242 224 210 214 253 266 273 253 245 266 251 265 291 131 138 140 128 121 97 86 82 75 71 67 59 49 43 41 38 36 35
230 206 174 166 186 206 226 228 227 237 210 203 210 209 222 244 225 163 194 234 211 222 247 241 252 262 254 259 262 262 261 247 231 238 248 251 192 62 328 340 78 26 354 321 281 255 261 248 231 243 264 270 267 304 323 314 304 282 250 207 183 227 247 252 244 252 289 253 260 36 126 140 135 110 95 75 72 72 67 64 63 61 55 48 45 42 39 37
238 239 155 228 238 198 209 212 192 183 188 184 195 217 210 227 235 197 199 230 213 209 234 226 231 244 249 261 258 253 259 251 238 241 252 253 217 153 183 142 63 30 340 280 267 263 257 255 236 241 255 262 260 358 5 333 299 271 257 198 168 211 227 232 235 272 296 258 208 161 140 127 108 87 74 68 71 70 62 59 60 62 60 54 49 45 41 38
235 237 142 242 267 178 81 82 164 181 187 183 177 199 210 201 213 216 212 223 216 213 229 233 234 238 245 264 257 243 251 260 249 235 270 291 279 216 200 204 76 42 352 327 336 330 277 244 182 240 241 281 329 346 65 343 272 191 104 68 89 93 67 41 40 44 31 67 117 136 125 101 88 89 79 68 71 73 66 58 56 56 57 55 50 46 42 36
251 322 146 196 212 142 119 153 210 194 174 198 191 169 204 207 185 216 238 230 220 220 236 245 244 248 259 271 260 235 261 315 287 266 323 309 289 281 273 270 271 334 350 345 349 353 312 203 173 225 233 210 304 283 127 240 246 162 64 32 30 56 57 48 43 47 67 93 113 123 115 94 87 97 94 85 77 74 67 56 52 47 48 54 53 47 42 34
280 319 269 235 173 143 183 187 210 215 188 198 195 163 189 219 150 142 254 250 232 233 251 255 257 272 279 271 254 174 26 338 287 269 289 291 281 316 340 287 284 255 190 330 327 338 298 256 218 246 249 224 232 246 230 236 235 131 61 26 12 16 43 59 51 30 24 105 136 135 123 120 124 114 103 95 81 73 64 53 52 48 45 51 53 47 41 34
257 235 241 262 168 153 205 192 198 222 185 109 92 155 190 231 152 149 247 240 220 237 289 286 274 279 269 249 232 7 342 318 289 276 282 267 263 342 70 93 306 261 179 162 193 170 284 273 267 256 254 241 210 222 227 239 241 148 62 22 10 6 18 71 65 36 16 13 148 136 101 116 129 129 114 98 81 71 62 50 50 51 49 51 53 50 45 38
Height
812 811 810 809 807 806 805 804 803 802 801 800 799 799 798 797 797 796 795 793 793 791 790 789 788 787 786 785 784 783 781 780 778 776 774 769 768 768 768 768 769 769 771 772 773 773 773 773 771 771 770 767 767 762 760 761 758 762 769 771 768 759 751 741 739 744 744 743 748 748 746 750 748 742 734 730 732 733 733 734 734 735 736 742 746 748 750 754
812 811 810 809 807 806 805 804 803 801 800 800 799 799 797 797 796 795 794 793 792 791 790 789 788 787 786 785 783 783 781 779 777 772 768 767 767 768 767 767 768 769 770 771 771 770 770 770 768 769 768 766 764 760 762 761 760 765 766 768 763 749 745 741 740 745 746 748 751 749 747 749 748 743 737 737 738 734 735 736 738 742 743 744 747 750 753 755
811 811 809 808 807 806 805 803 802 801 800 799 798 798 797 796 795 794 793 792 791 790 789 788 787 786 785 784 783 782 781 779 773 766 764 766 767 766 766 766 767 768 770 770 769 769 768 767 767 767 767 765 762 761 764 762 761 762 762 766 756 742 743 743 745 747 748 750 752 750 748 748 744 740 739 741 741 736 734 736 741 749 751 750 750 752 755 757
811 811 809 808 807 805 804 803 802 801 800 799 798 797 796 795 794 793 792 791 790 789 789 788 786 785 784 783 783 782 782 778 766 760 762 764 765 765 765 765 766 768 769 769 769 768 766 765 765 766 766 765 760 760 764 760 760 759 759 761 747 743 749 746 747 749 749 751 752 752 751 749 742 739 740 740 743 737 730 732 737 748 755 756 755 755 757 757
811 810 809 808 806 805 804 803 801 800 799 798 797 796 796 795 794 793 791 790 789 789 788 787 786 785 784 782 782 782 783 776 761 758 763 763 763 764 764 765 766 767 769 770 768 766 765 763 765 766 766 764 760 762 763 755 756 758 756 753 744 746 752 747 747 751 752 752 753 753 752 748 742 741 740 739 743 735 729 730 733 745 753 755 756 755 756 756
810 809 808 807 806 805 803 802 801 800 799 797 797 795 795 794 792 791 790 790 789 788 787 786 785 784 783 782 781 783 782 771 758 759 762 761 762 762 763 764 765 768 770 770 767 765 765 763 766 768 766 763 761 763 760 752 754 761 755 749 747 748 750 748 748 751 752 754 755 753 750 746 747 746 738 738 740 730 727 729 732 744 749 749 754 755 756 757
810 809 808 807 805 804 803 802 800 799 798 797 796 794 794 792 791 790 790 789 788 787 786 785 785 784 783 782 781 780 777 765 756 760 761 760 761 760 762 764 766 768 769 769 766 765 765 765 766 765 765 763 759 759 756 751 753 760 757 749 747 747 749 748 748 750 752 754 753 750 749 749 752 747 738 739 736 727 729 729 732 741 744 747 753 755 756 757
809 808 807 806 805 803 802 801 799 798 797 796 795 794 792 790 789 789 789 789 787 787 786 785 784 783 783 782 779 774 768 760 757 760 760 760 760 760 763 765 767 769 768 767 763 763 763 765 764 761 764 760 755 756 754 755 756 758 757 750 747 748 748 748 749 751 750 751 750 749 751 750 747 743 741 741 732 727 730 730 732 739 743 747 752 755 755 756
808 807 806 805 804 802 801 800 798 798 797 796 795 793 791 789 788 788 788 788 786 786 785 784 783 783 783 782 779 771 761 757 758 760 759 760 760 761 763 765 768 767 766 764 761 762 761 762 761 757 760 756 753 755 754 760 759 753 753 750 749 749 747 747 749 750 750 749 748 750 752 747 741 741 744 737 729 729 730 732 734 737 744 748 751 753 753 754
807 806 806 804 803 802 800 799 798 796 796 794 793 792 790 788 787 787 787 786 785 785 783 783 782 782 783 781 778 770 759 758 760 760 760 760 760 762 764 765 767 766 763 762 760 760 759 759 756 753 757 756 754 755 754 758 754 747 750 750 749 749 746 747 749 749 749 748 747 751 752 745 738 743 746 732 726 731 732 736 736 737 745 748 749 751 751 753
806 805 805 803 802 801 800 799 797 796 795 793 792 790 788 787 787 786 785 785 784 783 782 782 782 782 782 779 775 766 758 759 760 760 761 761 761 763 764 764 765 764 762 761 761 760 758 757 754 755 760 757 755 756 753 751 749 747 751 753 751 750 748 748 749 749 749 748 745 747 749 745 741 745 742 729 728 732 734 738 737 740 748 750 751 752 752 752
805 804 804 803 802 800 799 798 796 795 793 792 791 789 787 786 785 784 783 783 782 782 781 781 781 782 782 778 770 762 758 760 760 761 762 761 762 762 762 764 764 763 761 761 761 760 759 758 757 759 759 755 756 758 753 747 748 750 753 758 754 749 749 747 746 746 747 747 741 744 753 750 745 746 735 725 729 731 735 739 739 746 751 753 754 753 753 752
804 803 802 802 801 799 798 796 795 793 792 791 789 788 786 784 783 783 781 781 781 780 780 781 781 782 783 774 761 758 759 760 760 761 762 761 762 762 762 763 763 763 762 760 760 760 761 761 760 758 755 756 756 754 751 746 750 754 753 757 755 752 748 740 740 744 745 745 739 748 762 751 738 738 728 722 728 732 737 739 740 748 751 752 755 754 754 752
803 802 801 800 799 798 797 795 793 792 791 789 788 787 785 783 782 781 780 780 779 780 779 780 780 782 782 769 756 758 759 759 761 760 761 761 760 762 762 763 763 763 763 762 761 762 763 762 761 758 755 755 751 750 754 753 754 756 754 754 755 756 745 732 736 744 746 743 738 750 763 746 726 726 723 721 728 733 737 738 741 752 754 755 756 755 754 752
802 801 800 799 798 797 795 793 792 790 790 788 786 785 783 782 781 779 779 779 778 778 778 780 780 780 776 763 755 757 758 759 760 758 759 760 759 760 761 762 763 763 763 763 763 763 763 762 762 762 758 754 753 756 760 757 754 754 759 758 751 751 743 734 737 741 744 743 739 749 758 742 724 721 720 724 730 732 736 737 742 754 755 754 753 752 753 752
801 800 798 798 797 795 794 792 791 790 788 786 785 783 782 780 779 779 778 778 778 778 779 780 778 778 772 759 754 756 757 757 756 757 759 758 758 757 759 762 762 762 764 763 763 763 762 762 761 759 756 755 759 761 758 757 755 750 756 756 746 744 742 738 739 736 739 743 741 746 751 741 725 719 722 727 730 732 736 737 739 746 745 746 748 748 751 751
800 799 797 797 796 794 793 791 790 788 786 785 783 781 780 779 778 778 778 778 778 777 779 777 774 776 768 756 754 753 752 753 753 755 757 757 757 756 757 760 760 761 762 761 763 762 761 762 762 759 756 756 757 757 761 765 759 749 750 751 741 738 739 739 741 736 736 744 745 743 746 741 726 720 726 729 730 732 736 737 737 740 742 743 742 744 749 752
799 798 797 796 794 793 792 790 789 787 785 783 781 780 779 778 778 778 777 778 778 779 779 775 774 775 763 752 752 747 746 751 752 753 755 757 757 756 757 758 757 759 761 762 762 761 761 761 760 761 759 758 755 755 764 762 750 745 747 750 745 740 740 740 740 737 738 745 746 744 747 742 731 726 728 727 728 732 733 735 737 738 742 742 740 742 746 751
798 797 796 795 793 792 790 789 787 785 783 781 780 780 779 778 778 777 777 775 775 772 768 767 768 764 754 747 747 745 746 750 751 752 754 755 757 757 756 756 756 758 762 763 762 759 760 760 762 765 761 758 754 750 753 744 737 739 736 740 743 740 739 736 735 736 738 745 746 746 746 741 736 731 728 724 725 732 732 733 738 739 739 739 739 741 743 748
797 796 795 793 792 791 789 787 786 784 783 781 780 780 777 774 770 770 772 771 766 758 752 754 755 751 747 744 743 746 748 750 750 750 751 753 755 755 755 755 756 759 759 759 759 755 756 763 764 762 756 750 748 745 743 736 737 743 739 737 740 739 736 729 733 736 737 747 747 742 743 741 736 732 727 724 724 731 734 734 738 739 739 737 737 739 741 747
795 795 793 792 791 789 787 786 784 783 782 781 781 779 771 766 765 765 767 762 755 751 749 748 747 746 745 743 743 745 747 749 748 746 750 752 752 755 755 754 758 761 756 751 753 752 756 764 758 751 747 742 742 743 742 742 746 751 748 745 743 742 738 728 733 737 737 748 748 740 742 741 736 732 728 724 724 731 734 733 736 737 736 735 733 734 739 744
794 793 792 791 789 787 786 784 783 782 781 780 780 775 767 767 769 769 768 760 749 746 747 745 745 745 743 744 746 746 746 748 747 745 747 749 751 753 752 753 757 757 751 748 753 759 763 763 751 742 740 739 741 743 745 749 754 755 751 751 748 741 736 730 732 737 738 747 748 740 742 739 732 730 729 726 724 726 729 729 731 734 734 733 730 730 735 742
793 791 791 790 787 786 784 782 781 780 780 779 777 773 769 770 772 770 770 765 751 742 741 742 743 744 744 745 745 747 748 745 745 744 744 748 749 748 749 752 754 750 749 749 752 762 764 753 742 737 737 741 748 749 751 754 757 757 753 754 751 740 738 739 738 739 740 745 746 742 742 739 733 731 728 725 722 720 723 724 724 727 729 730 728 725 733 742
792 790 790 788 786 785 782 781 780 779 779 778 775 772 771 772 772 771 770 763 751 739 736 738 739 740 741 741 742 746 747 742 741 739 741 746 746 745 746 747 750 749 746 746 748 754 750 736 731 734 737 745 753 754 756 759 758 755 752 751 747 739 735 736 738 740 741 743 743 745 751 745 736 736 731 722 720 719 720 722 723 723 724 726 726 723 728 738
791 790 789 787 786 783 782 781 777 777 777 775 773 772 773 774 772 773 771 763 750 738 736 738 738 738 737 740 742 742 743 742 738 734 735 741 741 743 744 741 746 748 743 743 748 749 742 730 731 738 741 747 753 754 754 758 758 753 749 747 744 740 735 734 739 743 750 752 737 740 761 753 731 729 728 720 720 721 721 723 724 724 723 723 726 724 723 729
790 789 787 787 784 782 781 778 775 777 775 772 772 772 773 775 773 774 772 761 746 735 737 739 737 738 737 740 740 739 745 742 732 731 732 737 737 737 743 741 741 744 738 738 744 745 737 730 736 743 745 749 752 751 749 751 758 754 743 738 739 741 741 742 744 748 757 755 734 733 758 758 734 724 722 719 718 720 723 725 724 723 723 722 722 722 721 724
789 788 787 786 783 783 780 776 776 776 772 771 772 773 775 774 774 775 771 764 746 730 734 736 734 737 736 735 735 740 747 736 728 731 729 734 735 733 741 740 739 741 732 736 747 743 734 734 741 744 746 750 751 750 745 744 756 753 735 733 739 741 745 746 746 749 749 745 737 734 746 756 746 728 718 719 722 723 724 724 723 722 722 721 720 719 719 722
788 787 786 785 783 783 781 778 778 773 771 772 772 775 775 773 775 773 771 769 746 724 728 732 732 735 733 733 734 735 737 730 732 733 726 732 734 734 742 737 735 739 730 738 751 740 733 740 744 745 748 750 745 742 738 740 751 744 732 737 741 740 743 741 742 746 741 745 750 738 735 754 754 729 715 718 724 727 725 724 726 726 725 724 722 720 717 719
787 786 785 784 782 781 780 780 778 773 773 774 774 775 774 775 775 770 771 766 739 722 726 731 733 734 731 734 735 733 732 731 733 729 725 733 733 732 740 734 731 736 731 737 743 733 731 735 735 741 747 744 739 735 732 739 746 736 732 740 741 741 742 740 743 742 741 752 758 741 734 752 753 729 721 725 727 729 728 728 730 729 731 731 729 727 721 721
786 785 784 783 780 779 779 778 776 774 774 774 775 775 774 776 772 769 774 759 732 724 726 729 733 731 729 734 734 733 733 731 731 730 729 734 733 732 734 730 730 733 731 735 738 731 728 729 731 737 740 737 734 733 732 737 740 736 738 743 744 744 740 741 742 740 751 760 753 740 733 744 750 737 732 736 734 732 731 733 734 732 734 733 732 732 726 726
784 783 783 782 780 779 777 775 773 774 775 775 775 774 774 771 764 765 764 742 726 728 727 728 730 726 728 731 729 729 732 730 729 734 735 734 736 738 737 736 737 738 736 736 739 733 729 734 738 736 734 733 734 735 732 733 735 738 744 746 749 749 745 749 748 748 766 766 745 732 726 735 749 746 743 741 735 734 735 736 738 737 735 733 733 733 729 729
782 781 781 780 779 779 776 772 773 774 775 774 774 772 770 768 763 757 746 733 732 732 726 726 726 725 726 725 724 726 728 729 727 731 735 736 737 738 740 739 739 746 746 738 740 738 732 732 734 734 732 732 737 739 735 734 737 740 744 748 756 758 760 767 764 760 767 758 737 725 724 736 742 741 746 743 734 735 735 735 738 738 736 735 735 734 731 733
780 779 778 777 777 776 774 773 774 775 774 774 774 768 766 768 761 745 732 730 735 729 723 726 726 725 727 726 724 721 723 725 724 727 729 730 734 735 735 731 727 738 742 736 741 745 741 734 729 733 734 730 734 739 741 741 741 742 743 749 757 762 773 782 772 762 759 749 731 721 730 743 740 737 743 742 737 736 734 735 738 740 740 740 738 736 736 739
777 775 775 774 774 773 772 773 774 774 774 774 771 765 769 771 753 736 730 727 728 728 727 729 728 727 727 724 717 715 723 723 719 724 726 726 733 734 732 729 724 727 732 736 741 744 749 746 733 731 732 729 731 731 730 731 735 737 733 737 746 750 763 774 767 760 758 749 736 731 740 746 744 744 740 737 737 736 735 737 738 741 742 741 741 740 741 744
773 772 771 771 771 771 771 773 773 774 774 771 766 763 768 765 743 732 732 727 728 731 728 727 729 730 727 721 715 714 722 723 717 720 724 724 729 729 727 726 722 721 728 739 740 737 745 742 725 722 723 723 729 726 718 724 733 731 725 733 741 736 740 753 755 751 756 760 750 739 738 737 741 746 739 738 741 737 738 740 740 744 743 742 744 743 742 744
770 770 770 769 769 769 769 772 772 773 772 767 765 761 756 747 735 731 733 732 734 735 732 731 729 730 727 719 719 718 718 722 721 721 722 720 721 721 719 717 717 719 723 730 734 735 744 738 719 719 721 716 722 723 718 726 732 727 729 735 731 721 727 745 752 745 753 770 757 737 735 737 743 750 742 741 744 742 743 744 743 746 745 745 748 747 746 747
770 769 767 766 767 767 768 770 771 773 771 764 763 757 742 735 734 736 737 737 737 736 737 735 727 728 727 717 716 718 718 723 724 722 722 720 717 715 714 711 710 714 716 721 727 728 737 739 720 717 726 717 714 718 717 719 723 729 734 728 719 721 725 738 753 754 759 769 753 735 736 739 747 759 754 748 752 754 751 749 749 748 748 749 750 751 752 751
771 767 764 763 765 766 767 769 770 770 768 763 761 753 741 737 737 738 740 740 739 737 738 736 728 726 726 719 715 713 716 726 728 724 724 723 719 711 709 710 708 709 710 714 723 722 729 742 728 715 723 718 711 720 725 719 717 723 725 717 721 737 740 741 755 762 763 766 757 740 731 735 748 758 759 758 761 762 757 754 754 752 751 752 752 754 755 753
771 766 763 763 765 766 766 768 769 766 764 761 757 750 741 739 739 740 742 741 741 741 739 735 731 731 728 722 718 714 718 725 725 727 728 725 725 718 709 708 708 709 709 710 719 721 726 742 738 719 714 716 717 726 732 727 719 720 722 718 722 733 738 740 743 748 753 759 760 746 736 748 758 755 756 760 761 762 761 758 757 756 755 754 753 755 756 755
767 763 762 764 765 765 766 767 766 763 761 755 747 742 739 739 740 741 742 742 741 741 740 736 734 736 732 726 723 721 723 722 721 728 728 720 727 729 716 710 712 712 711 711 714 717 725 741 743 726 714 719 726 726 725 723 721 725 730 730 729 726 726 732 736 736 741 750 755 750 751 764 764 756 758 760 760 762 761 760 759 758 758 758 757 758 759 760
763 761 761 763 765 764 765 766 763 757 752 747 741 739 741 743 742 741 742 744 743 739 739 740 738 737 735 732 728 723 724 725 721 725 726 719 727 733 721 715 716 714 714 716 715 718 727 737 742 737 728 726 724 714 710 711 711 718 725 727 728 725 728 743 748 738 735 747 753 751 764 775 762 753 756 755 760 763 759 759 763 762 763 763 762 761 762 764
763 761 759 762 764 764 764 763 757 751 747 745 743 742 745 748 745 743 742 743 744 741 739 742 741 739 739 736 730 724 726 729 721 720 724 725 734 739 727 719 718 715 716 721 717 716 723 731 737 739 733 724 715 706 705 708 706 709 713 714 716 719 728 745 751 742 736 742 742 735 753 774 762 750 754 756 761 765 762 763 765 765 767 766 765 765 765 765
760 759 759 762 763 762 764 760 754 751 747 746 746 743 745 748 746 744 744 743 744 742 741 742 741 740 738 735 733 730 730 731 725 722 722 725 736 740 729 723 722 717 717 726 726 718 723 735 738 736 730 720 713 709 707 709 712 715 713 711 712 714 718 726 737 746 743 744 750 744 751 772 769 756 758 761 763 767 770 771 771 771 772 771 771 771 768 767
753 754 757 761 762 761 763 758 749 744 743 746 749 745 744 746 745 744 744 743 742 742 743 743 739 739 737 734 736 734 731 735 733 725 722 725 734 735 728 725 726 721 721 734 738 727 729 739 739 741 743 736 733 732 724 717 717 721 717 713 712 711 714 721 731 743 744 745 756 757 756 769 771 761 762 764 765 772 776 778 779 779 778 777 776 775 773 773
750 754 756 757 760 760 758 753 747 742 742 751 755 749 746 746 746 746 745 743 740 740 744 743 738 738 737 736 738 735 732 736 736 729 725 726 729 729 726 726 727 727 728 733 736 733 734 736 735 742 748 750 755 755 745 732 724 721 717 715 718 717 719 726 730 740 746 742 744 748 754 768 772 767 767 766 769 777 780 781 784 783 783 783 781 780 780 780
751 754 756 756 757 756 753 749 747 746 747 753 756 752 749 749 746 747 748 746 742 742 745 744 739 740 741 739 741 739 732 730 731 732 730 731 734 733 727 725 728 733 735 734 733 734 736 736 737 744 747 747 751 750 741 736 733 728 720 718 727 727 726 730 732 738 744 741 744 750 755 767 775 772 773 774 775 782 784 784 785 786 788 788 786 785 785 784
752 750 750 753 754 754 753 749 746 748 749 752 755 753 752 751 747 747 749 747 744 744 745 743 742 745 746 743 745 744 737 729 729 732 732 734 741 741 733 727 730 735 737 735 731 736 747 747 742 748 751 743 738 738 736 736 741 742 732 724 731 736 738 743 743 740 741 745 757 764 762 771 781 779 781 785 785 788 789 789 790 790 791 790 789 789 789 789
752 747 744 748 751 751 751 747 746 750 751 752 755 755 754 754 751 751 751 746 743 744 747 747 745 743 742 742 746 747 743 738 735 736 735 733 737 743 741 734 733 737 736 733 731 737 751 752 743 748 755 744 734 736 740 743 747 749 744 737 738 742 744 746 745 741 741 745 755 762 766 777 786 787 790 792 792 795 796 795 795 794 793 794 794 794 795 794
749 747 745 748 750 749 749 748 748 751 753 753 755 755 755 756 754 752 749 747 746 744 745 750 748 740 737 739 743 745 746 747 745 742 742 740 738 743 748 743 738 738 736 737 738 737 747 758 758 759 760 753 743 738 742 752 753 747 744 742 741 743 745 745 745 744 744 747 753 759 770 783 791 793 796 797 797 799 800 799 799 797 797 798 799 800 801 800
749 748 748 748 749 750 751 751 750 752 754 754 755 755 754 755 756 754 749 750 754 749 745 749 749 741 738 739 741 745 748 750 752 749 748 750 747 748 753 751 743 740 741 744 746 745 750 759 760 758 757 757 753 744 743 756 759 751 751 751 746 745 749 752 754 753 753 758 763 767 779 793 798 796 797 800 801 802 804 805 804 803 802 803 804 805 805 805
751 751 750 747 747 751 752 750 750 751 752 752 753 754 754 753 752 755 755 751 752 752 748 749 750 746 744 744 744 747 748 748 750 747 744 747 748 747 750 749 744 744 746 748 751 752 754 754 750 751 753 752 751 747 745 751 757 757 764 769 761 753 755 761 767 769 766 765 766 766 774 789 799 800 800 803 804 806 809 809 809 809 808 807 809 810 809 809
752 751 750 748 750 752 751 749 750 750 749 751 752 751 752 750 746 751 758 751 745 747 747 748 752 753 751 751 749 749 748 746 745 743 740 741 741 741 746 747 744 746 747 749 753 754 755 754 751 753 757 753 748 749 749 754 761 768 776 782 776 765 760 764 773 779 776 769 766 767 774 788 799 802 803 807 810 812 815 814 814 814 813 813 814 813 813 813